, TX

(GMT )
Ingleside

Weather History for KTFP - January, 2013

Change the Weather History Date:

Saturday, January 5, 2013

  Actual Average Record
Temperature  
Mean Temperature 48 °F -  
Max Temperature 50 °F - - ()
Min Temperature 46 °F - - ()
Degree Days  
Heating Degree Days 17    
Moisture  
Dew Point 43 °F    
Average Humidity 82    
Maximum Humidity 92    
Minimum Humidity 67    
Precipitation  
Precipitation 0.00 in - - ()
Sea Level Pressure  
Sea Level Pressure 30.30 in    
Wind  
Wind Speed 12 mph (North)    
Max Wind Speed 17 mph    
Max Gust Speed 23 mph    
Visibility 10 miles    
Events Rain    
Averages and records for this station are not official NWS values.
T = Trace of Precipitation, MM = Missing Value Source: NWS Daily Summary

Daily Weather History Graph

Daily Weather History Graph

Search for Another Location

Airport or City:

Astronomy

Jan. 05, 2013 Rise Set
Actual Time 7:21 AM CST 5:48 PM CST
Civil Twilight 6:55 AM CST 6:13 PM CST
Nautical Twilight 6:26 AM CST 6:42 PM CST
Astronomical Twilight 5:57 AM CST 7:11 PM CST
Moon 12:46 AM CST (1/5) 12:23 PM CST (1/5)
Length of Visible Light 11h 18m
Length of Day
10h 27m
Last Quarter, 44% of the Moon is Illuminated
Jan 5
Last Quarter
Jan 11
New
Jan 18
First Quarter
Jan 26
Full
Feb 3
Last Quarter

Hourly Weather History & Observations

Time (CST) Temp. Windchill Dew Point Humidity Pressure Visibility Wind Dir Wind Speed Gust Speed Precip Events Conditions
12:15 AM 49.6 °F - 39.0 °F 67% 30.34 in 10.0 mi North 11.5 mph - N/A   Overcast
12:35 AM 49.3 °F - 39.7 °F 70% 30.34 in 10.0 mi North 13.8 mph 18.4 mph N/A   Overcast
12:55 AM 49.1 °F - 39.7 °F 70% 30.33 in 10.0 mi North 11.5 mph - N/A   Overcast
1:15 AM 49.1 °F - 39.7 °F 70% 30.32 in 10.0 mi North 12.7 mph - N/A   Overcast
1:35 AM 49.1 °F - 39.4 °F 69% 30.32 in 10.0 mi North 13.8 mph - N/A   Overcast
1:55 AM 48.6 °F - 39.4 °F 71% 30.31 in 10.0 mi North 12.7 mph 18.4 mph N/A   Overcast
2:15 AM 48.6 °F - 39.4 °F 71% 30.31 in 10.0 mi North 15.0 mph 19.6 mph N/A   Overcast
2:35 AM 48.4 °F - 39.0 °F 70% 30.31 in 10.0 mi North 13.8 mph 18.4 mph N/A   Overcast
2:55 AM 48.4 °F - 39.0 °F 70% 30.31 in 10.0 mi North 16.1 mph - N/A   Overcast
3:15 AM 48.2 °F - 38.7 °F 70% 30.31 in 10.0 mi North 16.1 mph 21.9 mph N/A   Overcast
3:35 AM 48.0 °F - 39.0 °F 71% 30.31 in 10.0 mi North 16.1 mph 19.6 mph N/A   Overcast
3:55 AM 47.5 °F - 39.0 °F 72% 30.31 in 10.0 mi North 16.1 mph 21.9 mph N/A   Overcast
4:15 AM 47.5 °F - 38.7 °F 71% 30.31 in 10.0 mi North 13.8 mph - N/A   Overcast
4:35 AM 47.5 °F - 38.7 °F 71% 30.32 in 10.0 mi North 16.1 mph - N/A   Overcast
4:55 AM 47.3 °F - 39.2 °F 73% 30.31 in 10.0 mi North 15.0 mph - N/A   Overcast
5:15 AM 47.1 °F - 39.9 °F 76% 30.31 in 10.0 mi North 17.3 mph 21.9 mph N/A   Overcast
5:35 AM 46.9 °F - 40.1 °F 77% 30.31 in 10.0 mi North 16.1 mph 19.6 mph N/A   Overcast
5:55 AM 46.8 °F - 40.3 °F 78% 30.31 in 10.0 mi North 15.0 mph 23.0 mph N/A   Overcast
6:15 AM 46.6 °F - 40.5 °F 79% 30.31 in 10.0 mi North 15.0 mph 19.6 mph N/A   Overcast
6:35 AM 46.4 °F 41.1 °F 41.2 °F 82% 30.31 in 10.0 mi North 11.5 mph 18.4 mph N/A   Overcast
6:55 AM 46.4 °F 40.4 °F 41.2 °F 82% 30.32 in 10.0 mi North 13.8 mph - N/A   Overcast
7:15 AM 46.2 °F 40.8 °F 41.2 °F 83% 30.33 in 10.0 mi North 11.5 mph - N/A   Overcast
7:35 AM 46.0 °F 40.6 °F 41.4 °F 84% 30.33 in 10.0 mi North 11.5 mph - N/A   Overcast
7:55 AM 46.4 °F 41.1 °F 41.4 °F 83% 30.33 in 10.0 mi North 11.5 mph - N/A   Overcast
8:15 AM 46.6 °F - 41.4 °F 82% 30.34 in 10.0 mi North 10.4 mph - N/A   Overcast
8:35 AM - - - N/A% 30.35 in 10.0 mi North 13.8 mph - N/A   Overcast
8:55 AM 46.9 °F - 40.8 °F 79% 30.34 in 10.0 mi North 9.2 mph - N/A   Overcast
9:15 AM 47.3 °F - 41.2 °F 79% 30.35 in 10.0 mi North 13.8 mph - N/A   Overcast
9:55 AM 47.7 °F - 41.9 °F 80% 30.35 in 10.0 mi North 11.5 mph 18.4 mph N/A   Overcast
10:15 AM 47.7 °F - 42.3 °F 82% 30.35 in 10.0 mi North 13.8 mph - N/A   Overcast
11:15 AM 46.8 °F - 43.7 °F 89% 30.34 in 7.0 mi North 10.4 mph - N/A Rain Rain
11:35 AM 46.8 °F - 44.4 °F 92% 30.33 in 10.0 mi North 9.2 mph - N/A   Light Drizzle
11:55 AM 46.9 °F - 44.8 °F 92% 30.33 in 10.0 mi North 11.5 mph - N/A   Overcast
12:15 PM 47.3 °F - 44.8 °F 91% 30.32 in 10.0 mi North 11.5 mph - N/A   Overcast
12:35 PM 47.8 °F - 44.8 °F 89% 30.31 in 10.0 mi North 10.4 mph - N/A   Overcast
12:55 PM 48.0 °F - 45.1 °F 90% 30.29 in 10.0 mi North 10.4 mph - N/A   Light Drizzle
1:15 PM 48.2 °F - 45.3 °F 90% 30.29 in 10.0 mi North 11.5 mph - N/A   Overcast
1:35 PM 48.6 °F - 45.1 °F 88% 30.28 in 10.0 mi North 12.7 mph - N/A   Overcast
1:55 PM 49.1 °F - 45.0 °F 86% 30.28 in 10.0 mi North 13.8 mph - N/A   Overcast
2:15 PM 50.0 °F - 44.6 °F 82% 30.27 in 10.0 mi North 12.7 mph - N/A   Overcast
2:35 PM 49.8 °F - 44.6 °F 82% 30.27 in 10.0 mi NNE 10.4 mph - N/A   Overcast
2:55 PM 49.5 °F - 44.6 °F 83% 30.26 in 10.0 mi NNE 9.2 mph - N/A Rain Rain
3:15 PM 49.3 °F - 45.5 °F 87% 30.26 in 10.0 mi NNE 9.2 mph - N/A   Overcast
3:35 PM 49.1 °F - 46.0 °F 89% 30.26 in 10.0 mi North 9.2 mph - N/A   Overcast
3:55 PM 49.5 °F - 46.0 °F 88% 30.26 in 10.0 mi NNE 6.9 mph - N/A   Overcast
4:15 PM 49.5 °F - 46.0 °F 88% 30.26 in 10.0 mi NNE 8.1 mph - N/A   Overcast
5:15 PM 50.0 °F - 46.2 °F 87% 30.25 in 10.0 mi NNE 9.2 mph - N/A   Overcast
5:35 PM 50.0 °F - 46.2 °F 87% 30.25 in 10.0 mi North 6.9 mph - N/A   Overcast
5:55 PM 49.8 °F - 46.2 °F 87% 30.25 in 10.0 mi NNE 8.1 mph - N/A   Overcast
6:15 PM 49.6 °F - 46.4 °F 89% 30.25 in 10.0 mi NNE 5.8 mph - N/A   Overcast
6:35 PM 49.5 °F - 46.4 °F 89% 30.25 in 10.0 mi North 8.1 mph - N/A   Overcast
6:55 PM 49.5 °F - 46.4 °F 89% 30.26 in 10.0 mi North 6.9 mph - N/A   Overcast
7:15 PM 49.6 °F - 46.6 °F 89% 30.26 in 10.0 mi North 6.9 mph - N/A   Overcast
7:35 PM 50.0 °F - 46.6 °F 88% 30.26 in 10.0 mi North 8.1 mph - N/A   Overcast
7:55 PM 50.0 °F - 46.6 °F 88% 30.26 in 10.0 mi North 9.2 mph - N/A   Overcast
8:15 PM 50.0 °F - 46.6 °F 88% 30.26 in 10.0 mi North 6.9 mph - N/A   Overcast
8:35 PM 50.0 °F - 46.8 °F 89% 30.27 in 10.0 mi North 6.9 mph - N/A   Overcast
8:55 PM 50.0 °F - 46.8 °F 89% 30.27 in 10.0 mi North 5.8 mph - N/A   Overcast
9:15 PM 50.0 °F - 46.8 °F 89% 30.28 in 10.0 mi North 5.8 mph - N/A   Overcast
9:35 PM 50.2 °F - 46.9 °F 89% 30.28 in 10.0 mi NNW 5.8 mph - N/A   Overcast
9:55 PM 50.2 °F - 46.8 °F 88% 30.29 in 10.0 mi NNW 4.6 mph - N/A   Overcast
10:15 PM 50.2 °F - 46.8 °F 88% 30.30 in 10.0 mi NNW 4.6 mph - N/A   Overcast
10:35 PM 50.4 °F - 46.9 °F 88% 30.29 in 10.0 mi NNW 5.8 mph - N/A   Overcast
10:55 PM 50.4 °F - 47.3 °F 89% 30.29 in 10.0 mi NNW 5.8 mph - N/A   Overcast
11:15 PM 50.5 °F - 47.1 °F 88% 30.29 in 10.0 mi NNW 8.1 mph - N/A   Overcast
11:35 PM 50.5 °F - 46.8 °F 87% 30.28 in 10.0 mi NNW 6.9 mph - N/A   Overcast
11:55 PM 50.5 °F - 46.8 °F 87% 30.28 in 10.0 mi NNW 9.2 mph - N/A   Overcast